User: anonymous   Login
Location: Unspecified
(0.0000°N, 0.0000°E)
Time: 10:50:47
(UTC+00:00)
Language:

Optus B1 - Orbit

View from above orbital plane
View from above orbital plane
View from above satellite
View from above satellite

Ground track
Ground track

The orbit data is extracted from the following two-line orbital elements,

1 22087U 92054A   18174.79870556 -.00000001 +00000-0 +00000-0 0  9999
2 22087 009.2032 043.1356 0008319 041.3609 146.9514 00.99204914105782
Epoch (UTC): 23 June 2018 19:10:08
Eccentricity: 0.0008319
inclination: 9.2032°
perigee height: 36052 km
apogee height: 36123 km
right ascension of ascending node: 43.1356°
argument of perigee: 41.3609°
revolutions per day: 0.99204914
mean anomaly at epoch: 146.9514°
orbit number at epoch: 10578

The dashed part of the orbit path shows where the satellite is in the earth's shadow,  

DLR